Location: An Truyen
(16.5000°N, 107.6333°E)
Time: 09:40:54
(UTC+00:00)

Daily predictions for brighter satellites

Satellite Brightness Start Highest point End
(mag) Time Altitude Azimuth Time Altitude Azimuth Time Altitude Azimuth
Cosmos 1743 4.4 12:01:10 10° NE 12:03:29 15° E 12:04:28 14° E
Cosmos 44 Rocket 4.0 12:02:27 10° N 12:07:05 39° ENE 12:10:40 16° SE
OE (NEXTSAT) 4.2 12:06:25 10° SW 12:09:54 71° SE 12:13:22 10° NE
Cosmos 1536 2.8 12:06:29 10° N 12:10:33 87° E 12:14:36 10° S
FREGAT/IRIS 4.3 12:11:30 15° ENE 12:11:30 15° ENE 12:12:52 10° NE
DNEPR-1 R/B 3.8 12:06:40 10° NNW 12:11:46 62° ENE 12:15:07 17° SE
Cosmos 1072 Rocket 4.5 12:06:55 10° N 12:13:11 68° E 12:19:21 10° SSE
STARLINK-1157 3.1 12:10:04 10° NNW 12:13:12 55° NE 12:14:53 24° ESE
Cosmos 1464 Rocket 4.1 12:07:59 10° N 12:14:16 63° E 12:20:32 10° SSE
Ariane Rocket 3.6 12:12:02 15° SE 12:15:40 37° ENE 12:20:19 10° N
GPS 2-14 Rocket1 4.3 12:12:43 10° SSW 12:15:41 19° SSE 12:16:22 18° SE
CSL-04 Rocket 4.1 12:13:59 10° S 12:19:22 64° WSW 12:24:49 10° NNW
Cosmos 371 Rocket 3.5 12:17:52 10° S 12:22:27 44° E 12:27:02 10° NNE
HJ-1C 3.7 12:19:30 10° S 12:22:45 63° WSW 12:26:01 10° NNW
Cosmos 1666 3.4 12:19:24 10° NNW 12:23:07 53° W 12:26:47 10° S
H-2A R/B 2.0 12:19:07 14° SSE 12:23:17 59° ENE 12:28:16 10° N
Cosmos 1908 Rocket 4.0 12:21:24 10° NNE 12:25:37 41° E 12:27:41 25° SE
SJ-11-01 4.3 12:23:45 10° S 12:28:29 85° WSW 12:33:11 10° NNW
Cosmos 1515 3.6 12:24:44 10° S 12:28:32 68° E 12:32:17 10° N
Starlink 7 placeholder 3.3 12:26:54 10° SSW 12:28:23 32° SSW 12:28:23 32° SSW
STARLINK-1129 4.4 12:25:41 10° NNW 12:29:31 37° NE 12:30:52 28° E
KM-V1 3.4 12:28:42 10° WNW 12:30:58 72° NNE 12:31:43 45° E
NOSS 2-2 (E) 3.3 12:27:44 10° S 12:31:37 46° ESE 12:35:03 10° NE
Intelsat 5-1 Rocket 0.6 12:31:10 10° WSW 12:33:35 78° NNW 12:33:53 61° NE
STARLINK-1134 4.2 12:30:35 10° NNW 12:34:31 42° NE 12:35:40 34° E
SL-08 RB Rocket 4.2 12:33:49 30° ESE 12:35:22 40° ENE 12:39:39 10° N
ARIANE 44P R/B 4.2 12:25:52 10° WSW 12:35:44 27° SSW 12:37:21 22° SSE
IUS-1 SRM-2 4.0 12:34:53 10° NW 12:36:02 12° N 12:37:00 10° NNE
Okean 1-7 3.6 12:34:29 10° SSW 12:38:40 56° W 12:42:51 10° N
SL-4 R/B 2.5 12:35:19 10° SSW 12:39:29 44° SE 12:43:56 10° NE
STARLINK-1135 4.0 12:35:30 10° NNW 12:39:29 49° NE 12:40:27 40° E
Meteor 1-19 Rocket 4.3 12:34:42 10° S 12:40:12 78° W 12:45:53 10° N
STARLINK-1141 3.8 12:40:26 10° NNW 12:44:29 57° NE 12:45:15 47° E
Tsikada Rocket 4.3 12:39:11 10° SSW 12:45:22 68° W 12:51:30 10° N
Centaur AC-119 3.5 12:35:09 10° WNW 12:46:32 48° SW 12:48:04 33° SSE
STARLINK-1140 3.6 12:45:20 10° NNW 12:49:26 66° NE 12:50:01 57° E
Meteor 2-4 Rocket 3.5 12:46:06 15° S 12:50:34 74° E 12:55:54 10° N
ARGOS 3.1 12:48:15 24° S 12:51:36 86° WSW 12:56:59 10° NNW
Cosmos 1607 4.5 12:46:18 10° NW 12:52:34 57° WSW 12:56:58 20° S
CZ-2C R/B 4.0 12:48:32 10° N 12:53:03 66° WNW 12:57:38 10° SSW
USA 267 3.4 12:49:10 25° SSE 12:53:09 68° SW 12:59:40 10° NW
STARLINK-1156 3.4 12:50:17 10° NNW 12:54:24 77° NE 12:54:47 69° ESE
Cosmos 304 Rocket 4.5 12:55:50 36° ENE 12:55:50 36° ENE 12:59:13 10° NNE
IRS-1A Rocket 4.4 12:51:24 23° S 12:55:15 83° WSW 13:01:01 10° NNW
NOSS 2-2 (C) 3.2 12:52:03 10° SSW 12:56:39 63° NE 12:59:41 10° NNE
SWIFT 2.3 12:51:51 10° W 12:56:08 80° NNW 12:56:56 57° ENE
Cosmos 2297 3.7 12:54:54 29° S 12:57:39 57° ESE 13:03:12 10° NNE
STARLINK-1148 3.4 12:55:15 10° NW 12:59:22 88° NE 12:59:35 81° SE
COSMOS 2406 3.9 12:56:10 10° N 13:01:24 36° ENE 13:01:35 36° ENE
STARLINK-1158 3.5 13:00:14 10° NW 13:04:22 80° SW 13:04:23 80° SW
CZ-2C R/B 3.3 13:00:07 10° N 13:05:36 57° WNW 13:11:02 10° SSW
CZ-2C R/B 4.2 13:01:43 13° SSW 13:06:01 42° W 13:11:13 10° NNW
GPS 2-18 Rocket1 3.9 13:03:18 10° W 13:06:32 45° SW 13:06:32 45° SW
STARLINK-1162 3.7 13:05:15 10° NW 13:09:11 68° WSW 13:09:11 68° WSW
Cosmos 1452 Rocket 4.3 13:05:52 10° SSW 13:10:57 50° WNW 13:16:03 10° N
OAO 3 Copernicus 4.3 13:07:08 10° WNW 13:12:09 66° SW 13:12:25 64° SSW
Cosmos 1833 Rocket 4.0 13:09:37 10° NNE 13:13:17 25° NE 13:13:17 25° NE
CZ-3B Rocket 4.3 13:11:10 10° W 13:17:56 87° S 23:01:04 10° ESE
Cosmos 332 Rocket 4.5 13:13:30 11° SSW 13:18:01 54° WNW 13:22:48 10° N
Cosmos 407 Rocket 3.5 13:13:46 10° NNW 13:19:06 77° WSW 13:19:50 65° SSW
STARLINK-1159 4.4 13:15:15 10° NW 13:18:44 47° W 13:18:44 47° W
Cosmos 2082 Rocket 4.2 13:16:44 10° NNE 13:18:35 15° NE 13:18:35 15° NE
Milstar 3 Cent rocket 3.3 13:13:54 10° WSW 13:20:28 89° NNW 13:34:38 10° ENE
Meteor 1-13 Rocket 4.1 13:21:23 60° SSW 13:22:27 86° W 13:28:05 10° N
Celestis-02/Orion 38 4.4 13:23:10 79° ENE 13:23:10 79° ENE 13:28:25 10° NNW
GOES 2 Rocket 4.1 13:18:40 10° WNW 13:27:10 78° NNE 13:28:20 63° E
Cosmos 1975 3.9 13:23:26 10° NNW 13:26:18 42° NW 13:26:18 42° NW
Cosmos 1140 Rocket 3.6 13:28:55 10° NNW 13:33:45 71° WNW 13:33:45 71° WNW
Hubble Space Telescope 2.4 13:30:39 10° NW 13:33:12 33° NW 13:33:12 33° NW
Meteor 2-9 Rocket 4.3 13:31:55 10° NNW 13:37:05 65° W 13:37:05 65° W
ASC 2 Rocket 4.0 13:36:45 10° WSW 13:41:25 69° SW 13:41:25 69° SW
Cosmos 2279 Rocket 4.5 13:47:12 10° N 13:51:47 51° NNE 13:51:47 51° NNE
Resurs 01 Rocket 3.6 13:57:59 26° NNW 13:57:59 26° NNW 14:00:01 10° NNW
ATLAS 3B CENTAUR R/B 4.4 13:48:22 10° W 14:03:43 45° NNW 14:08:19 24° NE
Centaur D-1A AC-32 4.4 14:23:42 10° WNW 14:28:33 32° WNW 14:28:33 32° WNW
Ariane H10+ 4.5 14:03:28 10° W 14:34:15 56° SSW 14:34:15 56° SSW
Cosmos 1943 Rocket 4.4 14:46:06 19° NNW 14:46:06 19° NNW 14:48:03 10° N
ATLAS 2AS CENTAUR R/B 4.1 14:51:16 37° N 14:51:16 37° N 14:55:50 10° NNE
H-2A ROCKET BODY 4.3 14:48:25 10° W 14:54:31 55° N 15:28:32 10° ENE
SL-16 R/B 4.4 18:44:32 20° NE 18:44:32 20° NE 18:46:17 10° NNE
ADEOS II 4.3 19:02:46 10° N 19:04:17 20° N 19:04:17 20° N
Cosmos 2360 Rocket 3.9 19:12:12 27° ENE 19:12:12 27° ENE 19:15:30 10° NE
CZ-3A R/B 4.5 19:14:29 16° ESE 19:14:29 16° ESE 19:17:19 10° E
IDEFIX/ARIANE 42P 4.2 19:16:40 10° NE 19:20:04 29° ENE 19:20:04 29° ENE
CZ-3 R/B 4.4 18:26:01 10° WSW 19:31:52 89° SSE 19:45:39 10° ENE
Delta 2 Rocket 4.4 19:34:03 52° NE 19:34:03 52° NE 19:38:33 10° ENE
SL-8 Rocket 4.1 19:51:32 68° SE 19:52:04 73° E 19:58:20 10° N
USA 234 3.2 19:45:58 10° NE 19:52:28 73° SE 19:52:59 69° SSE
Cosmos 2322 Rocket 3.5 19:55:05 28° NNW 19:55:05 28° NNW 19:58:14 10° N
Cosmos 2263 Rocket 3.5 19:51:02 10° N 19:56:09 37° ENE 20:01:14 10° SE
ARIANE 5 R/B 4.2 19:57:39 10° NNW 19:59:43 22° NNW 19:59:43 22° NNW
Cosmos 2237 4.4 20:04:48 58° NW 20:04:48 58° NW 20:09:46 10° N
Cosmos 2151 4.1 20:06:11 39° N 20:06:11 39° N 20:08:55 10° N
BREEZE-M TANK 3.2 20:12:29 53° NNW 20:12:29 53° NNW 20:15:06 10° NNE
Cosmos 1375 Rocket 4.5 20:05:46 10° NNW 20:12:19 85° ENE 20:18:45 10° SSE
COSMOS 2428 3.9 20:15:08 23° SSE 20:18:04 38° ESE 20:23:16 10° NE
SL-16 R/B 4.3 20:26:24 12° NW 20:26:24 12° NW 20:27:41 10° NW
Cosmos 2227 4.1 20:19:33 10° NNW 20:25:19 86° WSW 20:31:04 10° SSE
Cosmos 1538 Rocket 3.9 20:31:21 56° SW 20:32:21 71° WNW 20:37:41 10° N
Cosmos 2084 Rocket 3.6 20:28:27 10° NNW 20:32:57 77° ENE 20:37:26 10° SSE
ATLAS 2A CENTAUR R/B 4.2 20:31:20 31° SSW 20:33:04 36° SSE 20:36:32 10° E
Cosmos 1125 Rocket 3.4 20:29:10 10° NNW 20:34:18 66° WSW 20:36:05 40° SSW
STARLINK-1230 4.3 20:32:11 10° NNW 20:36:14 55° NE 20:40:16 10° SE
ERS-2 4.2 20:42:10 16° NW 20:42:10 16° NW 20:43:07 10° NNW
Cosmos 2366 rocket 4.1 20:38:39 40° SW 20:40:18 50° W 20:46:18 10° N
GPS 2-14 Rocket1 3.3 20:41:19 39° SSE 20:41:19 39° SSE 20:44:05 10° ESE
STARLINK-1243 4.0 20:37:08 10° NNW 20:41:13 64° NE 20:45:18 10° SE
PSLV R/B 3.4 20:39:03 10° N 20:43:11 64° WNW 20:43:49 55° WSW
Okean 3 Rocket 4.3 20:44:36 35° WNW 20:44:36 35° WNW 20:48:22 10° NNW
STARLINK-1236 3.7 20:42:03 10° NNW 20:46:11 74° NE 20:50:17 10° SE
Cosmos 1408 Rocket 3.4 20:44:49 39° S 20:46:23 82° W 20:50:42 10° N
CZ-2C R/B 2.5 20:42:53 10° NNE 20:48:05 90° WNW 20:51:24 23° SSW
Cosmos 2333 Rocket 2.1 20:47:05 31° SSW 20:49:54 77° WNW 20:55:33 10° NNE
STARLINK-1020 4.4 20:49:51 27° S 20:51:36 44° SE 20:55:32 10° NE
MSX 4.4 20:47:31 10° N 20:52:43 37° WNW 20:54:31 30° WSW
Cosmos 2360 Rocket 3.6 20:53:59 19° WNW 20:54:25 19° WNW 20:58:22 10° NNW
Cosmos 2098 4.2 20:55:49 54° WNW 20:55:49 54° WNW 20:58:37 10° N
STARLINK-1269 3.4 20:52:00 10° NW 20:56:08 82° SW 21:00:15 10° SSE
STARLINK-1052 4.2 20:54:36 27° S 20:56:32 51° SE 21:00:32 10° NE
Cosmos 2322 4.3 20:58:19 28° WSW 21:00:22 37° WNW 21:05:37 10° N
IDEFIX/ARIANE 42P 4.1 20:57:14 10° NNW 21:00:35 17° WNW 21:00:53 17° WNW
STARLINK-1200 3.4 20:56:58 10° NW 21:01:04 71° SW 21:05:10 10° SSE
H-2A R/B 2.9 21:01:37 29° W 21:01:37 29° W 21:05:22 10° NW
Meteor 2-3 Rocket 3.6 20:57:20 18° SSW 21:01:37 69° W 21:07:11 10° N
Cosmos 1821 Rocket 4.1 20:55:31 10° S 21:01:54 85° E 21:08:17 10° N
PAYLOAD A 4.2 20:57:50 10° N 21:02:23 47° WNW 21:04:53 25° SW
OFEQ 5 4.4 21:02:15 10° ENE 21:04:58 76° SE 21:05:39 46° SW
USA 32 4.1 21:00:30 10° S 21:05:42 79° E 21:10:55 10° N
STARLINK-1192 3.5 21:01:59 10° NW 21:06:03 61° SW 21:10:07 10° SSE
Landsat 5 4.2 21:04:12 25° SSW 21:06:07 37° W 21:10:17 10° NNW
STARLINK-1033 3.8 21:04:11 25° SSW 21:06:28 70° SE 21:10:34 10° NE
SAR-Lupe-4 3.4 21:04:14 10° S 21:07:47 77° WSW 21:11:22 10° NNW
STARLINK-1244 3.7 21:06:59 10° NW 21:11:00 52° SW 21:15:01 10° SSE
STARLINK-1031 3.6 21:08:58 23° SSW 21:11:26 81° ESE 21:15:33 10° NE
ATLAS 2A CENTAUR R/B 4.4 21:10:26 10° SSW 21:12:40 12° S 21:14:22 10° SSE
Iridium 4 Rocket 3.4 21:09:10 10° S 21:13:35 74° E 21:18:24 10° N
ERBS 2.5 21:11:23 10° NW 21:14:35 43° WSW 21:17:47 10° SSE
ADEOS 3.8 21:10:01 10° N 21:15:01 49° WNW 21:19:17 14° SSW
Cosmos 2219 Rocket 2.6 21:11:59 20° SW 21:15:29 44° WNW 21:20:48 10° N
STARLINK-1138 3.8 21:12:01 10° NW 21:15:58 45° SW 21:19:55 10° SSE
STARLINK-1024 3.5 21:13:46 21° SW 21:16:26 87° NW 21:20:34 10° NE
CZ-4B R/B 3.7 21:14:11 10° NNE 21:17:36 43° E 21:21:01 10° S
Cosmos 1727 Rocket 3.9 21:12:01 10° N 21:18:10 78° W 21:24:20 10° S
CZ-4B R/B 1.0 21:16:54 10° S 21:19:55 74° W 21:22:57 10° NNW
GPS 2-17 Rocket1 2.9 21:17:06 21° WSW 21:19:56 83° S 21:24:22 10° ENE
STARLINK-1143 4.0 21:17:04 10° NW 21:20:55 39° SW 21:24:46 10° SSE
STARLINK-1035 3.6 21:18:31 19° SW 21:21:21 76° NW 21:25:29 10° NNE
Cosmos 1515 Rocket 4.3 21:17:10 10° N 21:21:24 54° E 21:25:37 10° SSE
Lacrosse 5 rocket 1.6 21:20:37 19° SW 21:23:23 52° WNW 21:27:17 10° NNE
SAR-Lupe-1 4.3 21:20:12 10° S 21:23:34 45° W 21:26:58 10° NNW
Meteor 1-31 Rocket 2.7 21:19:56 10° N 21:23:45 84° WNW 21:27:35 10° SSW
CCE 1 Rocket 4.1 21:21:00 16° SW 21:23:52 41° SSE 21:27:32 10° E
STARLINK-1241 4.2 21:22:10 10° WNW 21:25:54 33° WSW 21:29:39 10° S
PEGASUS R/B 4.2 21:24:03 10° NE 21:26:14 42° ESE 21:28:36 10° S
STARLINK-1032 3.7 21:23:19 17° SW 21:26:21 65° NW 21:30:26 10° NNE
Cosmos 1340 3.1 21:25:32 13° SSW 21:28:34 40° W 21:32:07 10° NNW
STARLINK-1239 4.4 21:27:15 10° WNW 21:30:51 29° WSW 21:34:27 10° S
STARLINK-1011 3.8 21:28:08 15° SW 21:31:20 56° NW 21:35:24 10° NNE
STARLINK-1037 3.8 21:28:15 15° SW 21:31:26 55° NW 21:35:28 10° NNE
Skynet4D Del rocket 4.4 21:25:52 10° WNW 21:31:29 51° NNE 21:36:41 10° E
Cosmos 1151 Rocket 3.3 21:28:10 10° NNW 21:32:23 49° W 21:36:35 10° SSW
Cosmos 1743 Rocket 4.0 21:28:17 10° SSW 21:32:31 43° W 21:36:42 10° NNW
Meteor PRIRODA 4.2 21:30:42 10° NNE 21:34:18 58° E 21:37:52 10° S
Cosmos 2344 4.1 21:27:42 12° SW 21:34:47 43° WNW 21:41:48 10° N
CZ-4B R/B 4.2 21:30:30 10° N 21:34:50 59° WNW 21:39:14 10° SSW
STARLINK-1036 4.0 21:32:54 14° SW 21:36:18 48° NW 21:40:18 10° NNE
Cosmos 1980 3.8 21:31:26 10° SSW 21:37:05 86° ESE 21:42:45 10° NNE
Cosmos 2263 Rocket 3.6 21:36:24 10° WNW 21:39:39 16° WSW 21:42:55 10° SW
Cosmos 1633 3.5 21:37:03 10° SW 21:40:08 28° W 21:43:14 10° NNW
ATLAS 5 CENTAUR R/B 1.7 21:37:27 10° SW 21:41:14 45° WNW 21:45:08 10° N
STARLINK-1044 4.2 21:37:40 12° WSW 21:41:16 42° NW 21:45:11 10° NNE
Cosmos 1680 Rocket 4.0 21:40:56 10° SW 21:45:49 41° WNW 21:50:46 10° N
STARLINK-1047 4.4 21:42:28 10° WSW 21:46:15 36° NW 21:50:05 10° NNE
Aurora 2 Rocket 3.6 21:44:12 10° SSW 21:46:36 20° SSE 21:49:09 10° ESE
BREEZE-M DEB (TANK) 4.2 21:47:29 10° SW 21:51:17 86° NW 22:05:36 10° NE
deb Centaur AC-2 4.5 21:46:53 10° WSW 21:51:36 56° NNW 21:55:51 10° NE
Cosmos 1484 Rocket 3.5 21:48:40 10° N 21:52:19 36° WNW 21:55:59 10° SW
H-2A R/B 2.6 21:48:04 10° N 21:52:29 79° WNW 21:56:58 10° SSW
NOSS 0 Rocket 4.2 21:46:52 10° SW 21:52:48 51° WNW 21:58:44 10° N
Cosmos 1346 Rocket 3.6 21:49:34 10° SSW 21:53:10 32° W 21:56:46 10° NNW
Cosmos 2228 Rocket 3.5 21:49:46 10° N 21:54:17 73° E 21:58:49 10° S
USA 229 DEB 4.3 21:50:56 10° NW 21:58:00 43° WSW 22:05:10 10° S
USA 229 4.3 21:51:01 10° NW 21:58:05 43° WSW 22:05:16 10° S
